CFG479 EDDG-EDDN

Flight info

Callsign CFG479
Flight time 0h 50m
Altitude 23000
Route DOMEG2Z DOMEG Z841 GMH Q603 TESGA L603 BOMBI T104 ELMOX DCT LETKU LETKU1V
Aircraft A320/M-SDE3FGHIRWY/LB1

Departure

Time 2026-04-25 18:26
Airport Münster Osnabrück Airport (EDDG)

Arrival

Time 2026-04-25 19:16
Airport Nuremberg Airport (EDDN)
Time Latitude Longitude Altitude Speed Heading
2026-04-25 17:23 52.13167 7.69372 164 ft 0 kts 196°
2026-04-25 18:18 52.13177 7.69377 164 ft 3 kts 196°
2026-04-25 18:18 52.13196 7.69386 164 ft 3 kts 197°
2026-04-25 18:18 52.13215 7.69396 164 ft 3 kts 201°
2026-04-25 18:18 52.13234 7.69409 164 ft 3 kts 212°
2026-04-25 18:19 52.13249 7.69428 164 ft 3 kts 240°
2026-04-25 18:19 52.13252 7.69439 164 ft 0 kts 251°
2026-04-25 18:22 52.13241 7.69352 164 ft 10 kts 285°
2026-04-25 18:22 52.13304 7.69292 164 ft 12 kts 340°
2026-04-25 18:23 52.13392 7.69244 164 ft 15 kts 341°
2026-04-25 18:23 52.13467 7.69319 164 ft 14 kts 71°
2026-04-25 18:23 52.13504 7.69493 164 ft 22 kts 70°
2026-04-25 18:23 52.13554 7.69733 165 ft 22 kts 71°
2026-04-25 18:24 52.13607 7.69965 161 ft 22 kts 53°
2026-04-25 18:24 52.13742 7.70008 164 ft 21 kts 332°
2026-04-25 18:24 52.13752 7.69843 166 ft 0 kts 251°
2026-04-25 18:25 52.13705 7.69618 166 ft 57 kts 252°
2026-04-25 18:25 52.13502 7.68647 165 ft 122 kts 251°
2026-04-25 18:25 52.13184 7.67137 457 ft 150 kts 254°
2026-04-25 18:26 52.12820 7.65462 977 ft 169 kts 256°
2026-04-25 18:26 52.12419 7.63531 1460 ft 191 kts 256°
2026-04-25 18:26 52.11970 7.61354 1958 ft 215 kts 255°
2026-04-25 18:26 52.11470 7.58910 2515 ft 240 kts 255°
2026-04-25 18:27 52.10924 7.56257 3331 ft 251 kts 255°
2026-04-25 18:27 52.10146 7.53685 4346 ft 263 kts 233°
2026-04-25 18:27 52.08578 7.52018 5328 ft 281 kts 204°
2026-04-25 18:27 52.06643 7.51294 6295 ft 290 kts 191°
2026-04-25 18:28 52.04611 7.51011 7223 ft 297 kts 186°
2026-04-25 18:28 52.02537 7.50876 8186 ft 299 kts 185°
2026-04-25 18:28 52.00443 7.50852 9154 ft 305 kts 177°
2026-04-25 18:29 51.96143 7.52174 10570 ft 330 kts 172°
2026-04-25 18:29 51.93798 7.52825 10880 ft 354 kts 173°
2026-04-25 18:30 51.86099 7.54765 12781 ft 384 kts 174°
2026-04-25 18:30 51.83442 7.55447 13546 ft 389 kts 174°
2026-04-25 18:30 51.80752 7.56146 14265 ft 394 kts 174°
2026-04-25 18:30 51.78035 7.56855 14957 ft 397 kts 173°
2026-04-25 18:31 51.75287 7.57572 15673 ft 400 kts 173°
2026-04-25 18:31 51.72554 7.58285 16355 ft 404 kts 173°
2026-04-25 18:31 51.69806 7.59354 17024 ft 410 kts 163°
2026-04-25 18:31 51.67103 7.60902 17715 ft 414 kts 162°
2026-04-25 18:32 51.64374 7.62468 18390 ft 418 kts 162°
2026-04-25 18:32 51.61626 7.64040 18978 ft 422 kts 162°
2026-04-25 18:32 51.58846 7.65628 19581 ft 425 kts 162°
2026-04-25 18:32 51.56041 7.67225 20188 ft 428 kts 162°
2026-04-25 18:33 51.53225 7.68823 20803 ft 431 kts 162°
2026-04-25 18:33 51.50389 7.70428 21385 ft 434 kts 162°
2026-04-25 18:33 51.47518 7.72047 21942 ft 438 kts 162°
2026-04-25 18:33 51.44635 7.73675 22491 ft 441 kts 162°
2026-04-25 18:34 51.41723 7.75317 22984 ft 444 kts 162°
2026-04-25 18:34 51.38803 7.76962 23136 ft 448 kts 162°
2026-04-25 18:34 51.35858 7.78620 23171 ft 460 kts 162°
2026-04-25 18:34 51.32827 7.80330 23167 ft 464 kts 162°
2026-04-25 18:35 51.29779 7.82070 23156 ft 464 kts 162°
2026-04-25 18:35 51.26729 7.83805 23160 ft 465 kts 162°
2026-04-25 18:35 51.23672 7.85523 23163 ft 465 kts 162°
2026-04-25 18:35 51.20622 7.87225 23165 ft 465 kts 162°
2026-04-25 18:36 51.17596 7.89058 23162 ft 466 kts 157°
2026-04-25 18:36 51.14753 7.91517 23167 ft 467 kts 148°
2026-04-25 18:36 51.12019 7.94305 23167 ft 467 kts 148°
2026-04-25 18:36 51.09287 7.97097 23163 ft 467 kts 148°
2026-04-25 18:37 51.06551 7.99891 23160 ft 467 kts 148°
2026-04-25 18:37 51.03812 8.02683 23146 ft 467 kts 148°
2026-04-25 18:37 51.01084 8.05456 23161 ft 467 kts 148°
2026-04-25 18:37 50.98341 8.08237 23153 ft 467 kts 148°
2026-04-25 18:38 50.95602 8.11008 23138 ft 467 kts 148°
2026-04-25 18:38 50.92857 8.13774 23147 ft 467 kts 148°
2026-04-25 18:38 50.90148 8.16498 23151 ft 467 kts 148°
2026-04-25 18:38 50.87370 8.19284 23143 ft 467 kts 149°
2026-04-25 18:39 50.84617 8.22044 23153 ft 468 kts 149°
2026-04-25 18:39 50.81872 8.24793 23143 ft 468 kts 149°
2026-04-25 18:39 50.79159 8.27508 23151 ft 468 kts 149°
2026-04-25 18:39 50.76403 8.30258 23151 ft 468 kts 149°
2026-04-25 18:40 50.73658 8.32992 23153 ft 468 kts 149°
2026-04-25 18:40 50.70896 8.35739 23149 ft 468 kts 149°
2026-04-25 18:40 50.68142 8.38482 23150 ft 468 kts 149°
2026-04-25 18:40 50.65390 8.41228 23149 ft 468 kts 149°
2026-04-25 18:41 50.62634 8.43976 23148 ft 468 kts 149°
2026-04-25 18:41 50.59882 8.46712 23146 ft 468 kts 149°
2026-04-25 18:41 50.57127 8.49444 23141 ft 468 kts 149°
2026-04-25 18:41 50.54371 8.52169 23128 ft 467 kts 149°
2026-04-25 18:42 50.51622 8.54880 23138 ft 467 kts 149°
2026-04-25 18:42 50.50688 8.55799 23139 ft 467 kts 149°
2026-04-25 18:42 50.46089 8.60269 23130 ft 466 kts 152°
2026-04-25 18:42 50.43157 8.62429 23131 ft 464 kts 161°
2026-04-25 18:43 50.40091 8.63975 23129 ft 463 kts 165°
2026-04-25 18:43 50.37002 8.65422 23128 ft 463 kts 165°
2026-04-25 18:43 50.33912 8.66865 23130 ft 463 kts 165°
2026-04-25 18:43 50.30827 8.68305 23113 ft 463 kts 165°
2026-04-25 18:44 50.27734 8.69751 23109 ft 463 kts 165°
2026-04-25 18:44 50.24648 8.71194 23115 ft 463 kts 165°
2026-04-25 18:44 50.21553 8.72642 23121 ft 463 kts 165°
2026-04-25 18:44 50.18508 8.74064 23126 ft 463 kts 165°
2026-04-25 18:45 50.15414 8.75507 23132 ft 464 kts 165°
2026-04-25 18:45 50.12326 8.76943 23135 ft 464 kts 165°
2026-04-25 18:45 50.09235 8.78419 23136 ft 464 kts 162°
2026-04-25 18:45 50.06269 8.80451 23132 ft 466 kts 153°
2026-04-25 18:46 50.03545 8.83180 23139 ft 467 kts 143°
2026-04-25 18:46 50.01091 8.86498 23143 ft 467 kts 137°
2026-04-25 18:46 49.98692 8.89913 23145 ft 467 kts 138°
2026-04-25 18:46 49.96295 8.93311 23146 ft 467 kts 138°
2026-04-25 18:47 49.93888 8.96710 23142 ft 467 kts 138°
2026-04-25 18:47 49.91480 9.00099 23136 ft 467 kts 138°
2026-04-25 18:47 49.89072 9.03480 23135 ft 467 kts 138°
2026-04-25 18:47 49.86691 9.06812 23134 ft 467 kts 138°
2026-04-25 18:48 49.84279 9.10187 23140 ft 467 kts 138°
2026-04-25 18:48 49.81876 9.13550 23123 ft 467 kts 138°
2026-04-25 18:48 49.79459 9.16931 23123 ft 467 kts 138°
2026-04-25 18:48 49.77053 9.20296 23125 ft 467 kts 138°
2026-04-25 18:49 49.74641 9.23663 23125 ft 467 kts 138°
2026-04-25 18:49 49.72225 9.27027 23123 ft 466 kts 138°
2026-04-25 18:49 49.69814 9.30377 23125 ft 466 kts 138°
2026-04-25 18:49 49.67400 9.33733 23123 ft 466 kts 138°
2026-04-25 18:50 49.64992 9.37074 23120 ft 466 kts 138°
2026-04-25 18:50 49.62582 9.40416 23114 ft 466 kts 137°
2026-04-25 18:50 49.60352 9.44039 23111 ft 466 kts 131°
2026-04-25 18:50 49.58222 9.47797 23122 ft 466 kts 131°
2026-04-25 18:51 49.56090 9.51551 23110 ft 465 kts 131°
2026-04-25 18:51 49.55399 9.52764 23111 ft 465 kts 131°
2026-04-25 18:51 49.51818 9.59039 23113 ft 464 kts 131°
2026-04-25 18:51 49.49684 9.62767 23119 ft 464 kts 131°
2026-04-25 18:52 49.47577 9.66441 23115 ft 464 kts 131°
2026-04-25 18:52 49.45414 9.70202 23117 ft 464 kts 131°
2026-04-25 18:52 49.43309 9.73863 23113 ft 464 kts 131°
2026-04-25 18:52 49.41249 9.77626 22733 ft 456 kts 125°
2026-04-25 18:53 49.39635 9.81756 22036 ft 450 kts 114°
2026-04-25 18:53 49.38537 9.86228 21367 ft 443 kts 103°
2026-04-25 18:53 49.37974 9.90828 20721 ft 436 kts 93°
2026-04-25 18:53 49.37758 9.95444 20077 ft 432 kts 91°
2026-04-25 18:54 49.37333 10.04556 18869 ft 425 kts 92°
2026-04-25 18:54 49.37115 10.09063 18287 ft 422 kts 92°
2026-04-25 18:54 49.36893 10.13544 17656 ft 418 kts 92°
2026-04-25 18:55 49.36672 10.17968 17057 ft 414 kts 92°
2026-04-25 18:55 49.36452 10.22358 16474 ft 411 kts 92°
2026-04-25 18:55 49.36232 10.26710 15905 ft 407 kts 92°
2026-04-25 18:55 49.36011 10.31030 15345 ft 404 kts 92°
2026-04-25 18:56 49.35790 10.35300 14761 ft 401 kts 92°
2026-04-25 18:56 49.35574 10.39492 14209 ft 398 kts 92°
2026-04-25 18:56 49.35363 10.43705 13626 ft 394 kts 91°
2026-04-25 18:56 49.35424 10.47874 13003 ft 388 kts 82°
2026-04-25 18:57 49.35893 10.51907 12394 ft 381 kts 73°
2026-04-25 18:57 49.36740 10.55735 11786 ft 375 kts 64°
2026-04-25 18:57 49.37924 10.59252 11178 ft 369 kts 55°
2026-04-25 18:57 49.38396 10.60369 10969 ft 366 kts 52°
2026-04-25 18:58 49.41112 10.65232 9992 ft 357 kts 44°
2026-04-25 18:58 49.43073 10.71810 9701 ft 335 kts 83°
2026-04-25 18:58 49.42935 10.75314 9574 ft 323 kts 96°
2026-04-25 18:59 49.42296 10.81850 9207 ft 303 kts 97°
2026-04-25 18:59 49.41673 10.88217 8428 ft 298 kts 96°
2026-04-25 19:00 49.41067 10.94475 7638 ft 294 kts 96°
2026-04-25 19:00 49.40772 10.97527 7254 ft 292 kts 97°
2026-04-25 19:01 49.40176 11.03649 6471 ft 288 kts 97°
2026-04-25 19:01 49.39878 11.06676 6052 ft 286 kts 97°
2026-04-25 19:01 49.39600 11.09686 5649 ft 283 kts 96°
2026-04-25 19:01 49.39312 11.12662 5229 ft 281 kts 97°
2026-04-25 19:02 49.38716 11.18550 5011 ft 280 kts 97°
2026-04-25 19:02 49.38414 11.21512 5020 ft 281 kts 97°
2026-04-25 19:02 49.38113 11.24484 5017 ft 283 kts 97°
2026-04-25 19:03 49.37708 11.28476 5032 ft 283 kts 97°
2026-04-25 19:03 49.37207 11.33419 5029 ft 282 kts 97°
2026-04-25 19:03 49.36905 11.36397 5031 ft 282 kts 97°
2026-04-25 19:04 49.36407 11.41342 5031 ft 282 kts 97°
2026-04-25 19:04 49.36107 11.44299 5026 ft 274 kts 97°
2026-04-25 19:05 49.35554 11.49705 5026 ft 241 kts 97°
2026-04-25 19:05 49.35128 11.54647 5025 ft 227 kts 85°
2026-04-25 19:05 49.35416 11.56954 5030 ft 216 kts 65°
2026-04-25 19:06 49.36130 11.58915 5064 ft 208 kts 47°
2026-04-25 19:06 49.38422 11.61355 5033 ft 198 kts 13°
2026-04-25 19:06 49.39760 11.61763 5026 ft 196 kts
2026-04-25 19:07 49.42295 11.62384 5024 ft 182 kts
2026-04-25 19:07 49.43556 11.62667 5022 ft 183 kts 360°
2026-04-25 19:08 49.45377 11.60704 4503 ft 175 kts 287°
2026-04-25 19:08 49.45570 11.58852 4215 ft 174 kts 278°
2026-04-25 19:09 49.45861 11.53442 4030 ft 167 kts 277°
2026-04-25 19:09 49.45922 11.52261 4031 ft 167 kts 277°
2026-04-25 19:09 49.46054 11.48111 4025 ft 168 kts 270°
2026-04-25 19:10 49.46090 11.46320 4021 ft 166 kts 276°
2026-04-25 19:10 49.46215 11.44552 4032 ft 166 kts 279°
2026-04-25 19:10 49.46374 11.42785 4031 ft 167 kts 281°
2026-04-25 19:10 49.46546 11.41027 4035 ft 167 kts 281°
2026-04-25 19:11 49.46722 11.39266 4024 ft 166 kts 281°
2026-04-25 19:11 49.46899 11.37513 4025 ft 166 kts 281°
2026-04-25 19:11 49.47076 11.35759 4029 ft 167 kts 281°
2026-04-25 19:11 49.47254 11.33996 4032 ft 167 kts 281°
2026-04-25 19:12 49.47431 11.32243 4018 ft 164 kts 281°
2026-04-25 19:12 49.47608 11.30491 3821 ft 165 kts 281°
2026-04-25 19:12 49.47777 11.28799 3613 ft 151 kts 281°
2026-04-25 19:12 49.47928 11.27279 3540 ft 147 kts 282°
2026-04-25 19:13 49.48093 11.25641 3768 ft 160 kts 281°
2026-04-25 19:13 49.48273 11.23902 3437 ft 166 kts 282°
2026-04-25 19:13 49.48451 11.22153 3029 ft 164 kts 281°
2026-04-25 19:13 49.48603 11.20446 2579 ft 157 kts 279°
2026-04-25 19:14 49.48740 11.18837 2216 ft 146 kts 280°
2026-04-25 19:14 49.48861 11.17853 2072 ft 139 kts 283°
2026-04-25 19:14 49.49074 11.15959 1836 ft 133 kts 281°
2026-04-25 19:14 49.49214 11.14535 1688 ft 136 kts 278°
2026-04-25 19:15 49.49348 11.13091 1520 ft 136 kts 278°
2026-04-25 19:15 49.49492 11.11648 1369 ft 138 kts 279°
2026-04-25 19:15 49.49640 11.10202 1193 ft 137 kts 277°
2026-04-25 19:15 49.49778 11.08764 1042 ft 135 kts 278°
2026-04-25 19:16 49.49861 11.07931 1034 ft 7 kts 278°